TimeEST,TemperatureF,Dew PointF,Humidity,Sea Level PressureIn,VisibilityMPH,Wind Direction,Wind SpeedMPH,Gust SpeedMPH,PrecipitationIn,Events,Conditions,WindDirDegrees,DateUTC
12:15 AM,32.0,23.0,69,30.32,10.0,North,-9999.0,-,N/A,,Clear,0,2012-12-31 05:15:00
12:35 AM,32.0,23.0,69,30.31,10.0,North,-9999.0,-,N/A,,Clear,0,2012-12-31 05:35:00
1:15 AM,30.2,21.2,69,30.31,10.0,WNW,5.8,-,N/A,,Clear,290,2012-12-31 06:15:00
1:35 AM,30.2,23.0,75,30.32,10.0,WNW,4.6,-,N/A,,Clear,290,2012-12-31 06:35:00
1:55 AM,28.4,21.2,74,30.32,10.0,WNW,4.6,-,N/A,,Clear,290,2012-12-31 06:55:00
2:15 AM,28.4,23.0,80,30.32,10.0,NW,4.6,-,N/A,,Clear,320,2012-12-31 07:15:00
2:35 AM,28.4,21.2,74,30.32,10.0,NW,3.5,-,N/A,,Clear,310,2012-12-31 07:35:00
2:55 AM,28.4,21.2,74,30.32,10.0,Calm,Calm,-,N/A,,Clear,0,2012-12-31 07:55:00
3:15 AM,26.6,23.0,86,30.30,10.0,Calm,Calm,-,N/A,,Clear,0,2012-12-31 08:15:00
3:35 AM,26.6,23.0,86,30.30,10.0,SW,4.6,-,N/A,,Clear,220,2012-12-31 08:35:00
3:55 AM,28.4,23.0,80,30.30,10.0,SW,5.8,-,N/A,,Clear,230,2012-12-31 08:55:00
4:15 AM,26.6,23.0,86,30.30,10.0,WSW,4.6,-,N/A,,Clear,250,2012-12-31 09:15:00
4:35 AM,26.6,23.0,86,30.29,10.0,SW,3.5,-,N/A,,Clear,230,2012-12-31 09:35:00
4:55 AM,26.6,23.0,86,30.30,10.0,SW,5.8,-,N/A,,Clear,220,2012-12-31 09:55:00
5:15 AM,26.6,23.0,86,30.29,10.0,SW,4.6,-,N/A,,Clear,220,2012-12-31 10:15:00
5:35 AM,26.6,23.0,86,30.28,10.0,SW,5.8,-,N/A,,Clear,220,2012-12-31 10:35:00
5:55 AM,26.6,23.0,86,30.28,10.0,SSW,4.6,-,N/A,,Clear,210,2012-12-31 10:55:00
6:15 AM,26.6,23.0,86,30.26,10.0,WSW,3.5,-,N/A,,Clear,240,2012-12-31 11:15:00
6:35 AM,26.6,23.0,86,30.27,10.0,Calm,Calm,-,N/A,,Clear,0,2012-12-31 11:35:00
6:55 AM,26.6,23.0,86,30.26,10.0,Calm,Calm,-,N/A,,Clear,0,2012-12-31 11:55:00
7:15 AM,26.6,23.0,86,30.27,10.0,Calm,Calm,-,N/A,,Clear,0,2012-12-31 12:15:00
7:35 AM,26.6,23.0,86,30.27,10.0,SSW,3.5,-,N/A,,Clear,210,2012-12-31 12:35:00
7:55 AM,26.6,23.0,86,30.27,10.0,Calm,Calm,-,N/A,,Clear,0,2012-12-31 12:55:00
8:15 AM,26.6,23.0,86,30.27,10.0,Calm,Calm,-,N/A,,Clear,0,2012-12-31 13:15:00
8:35 AM,28.4,24.8,86,30.26,10.0,Calm,Calm,-,N/A,,Clear,0,2012-12-31 13:35:00
8:55 AM,28.4,26.6,93,30.26,10.0,Calm,Calm,-,N/A,,Clear,0,2012-12-31 13:55:00
9:15 AM,30.2,26.6,86,30.25,10.0,Calm,Calm,-,N/A,,Clear,0,2012-12-31 14:15:00
9:35 AM,30.2,24.8,80,30.25,10.0,North,-9999.0,-,N/A,,Clear,0,2012-12-31 14:35:00
9:55 AM,32.0,26.6,80,30.26,10.0,Calm,Calm,-,N/A,,Clear,0,2012-12-31 14:55:00
10:15 AM,32.0,26.6,80,30.25,10.0,Calm,Calm,-,N/A,,Clear,0,2012-12-31 15:15:00
10:35 AM,32.0,26.6,80,30.24,10.0,Calm,Calm,-,N/A,,Clear,0,2012-12-31 15:35:00
10:55 AM,32.0,26.6,80,30.23,10.0,Calm,Calm,-,N/A,,Clear,0,2012-12-31 15:55:00
11:15 AM,32.0,26.6,80,30.23,10.0,Calm,Calm,-,N/A,,Clear,0,2012-12-31 16:15:00
11:35 AM,33.8,26.6,75,30.21,10.0,Calm,Calm,-,N/A,,Clear,0,2012-12-31 16:35:00
11:55 AM,33.8,24.8,70,30.20,10.0,Calm,Calm,-,N/A,,Clear,0,2012-12-31 16:55:00
12:15 PM,33.8,26.6,75,30.18,10.0,Calm,Calm,-,N/A,,Clear,0,2012-12-31 17:15:00
12:35 PM,33.8,26.6,75,30.18,10.0,North,-9999.0,-,N/A,,Clear,0,2012-12-31 17:35:00
12:55 PM,33.8,26.6,75,30.16,10.0,Calm,Calm,-,N/A,,Clear,0,2012-12-31 17:55:00
1:15 PM,33.8,28.4,81,30.14,10.0,Calm,Calm,-,N/A,,Mostly Cloudy,0,2012-12-31 18:15:00
1:35 PM,33.8,26.6,75,30.13,10.0,Calm,Calm,-,N/A,,Mostly Cloudy,0,2012-12-31 18:35:00
1:55 PM,35.6,26.6,70,30.13,10.0,Calm,Calm,-,N/A,,Mostly Cloudy,0,2012-12-31 18:55:00
2:15 PM,35.6,26.6,70,30.11,10.0,Calm,Calm,-,N/A,,Scattered Clouds,0,2012-12-31 19:15:00
2:35 PM,35.6,26.6,70,30.11,10.0,SSW,4.6,-,N/A,,Scattered Clouds,210,2012-12-31 19:35:00
2:55 PM,35.6,26.6,70,30.11,10.0,Calm,Calm,-,N/A,,Mostly Cloudy,0,2012-12-31 19:55:00
3:15 PM,35.6,28.4,75,30.10,10.0,South,3.5,-,N/A,,Overcast,180,2012-12-31 20:15:00
3:35 PM,35.6,28.4,75,30.11,10.0,SSW,4.6,-,N/A,,Overcast,200,2012-12-31 20:35:00
3:55 PM,35.6,28.4,75,30.11,10.0,SSW,3.5,-,N/A,,Overcast,200,2012-12-31 20:55:00
4:15 PM,35.6,28.4,75,30.09,10.0,South,3.5,-,N/A,,Overcast,170,2012-12-31 21:15:00
4:35 PM,35.6,28.4,75,30.08,10.0,South,4.6,-,N/A,,Overcast,190,2012-12-31 21:35:00
4:55 PM,35.6,28.4,75,30.10,10.0,SSW,6.9,-,N/A,,Overcast,210,2012-12-31 21:55:00
5:15 PM,35.6,28.4,75,30.09,10.0,SSW,5.8,-,N/A,,Overcast,200,2012-12-31 22:15:00
5:35 PM,35.6,28.4,75,30.08,10.0,Calm,Calm,-,N/A,,Overcast,0,2012-12-31 22:35:00
5:55 PM,35.6,28.4,75,30.07,10.0,Calm,Calm,-,N/A,,Overcast,0,2012-12-31 22:55:00
6:15 PM,35.6,30.2,81,30.08,10.0,WSW,3.5,-,N/A,,Overcast,240,2012-12-31 23:15:00
6:35 PM,35.6,30.2,81,30.07,10.0,SW,3.5,-,N/A,,Overcast,220,2012-12-31 23:35:00
6:55 PM,35.6,28.4,75,30.07,10.0,SW,3.5,-,N/A,,Overcast,220,2012-12-31 23:55:00
7:15 PM,35.6,30.2,81,30.06,10.0,West,3.5,-,N/A,,Overcast,270,2013-01-01 00:15:00
7:35 PM,33.8,30.2,87,30.05,10.0,SSW,4.6,-,N/A,,Mostly Cloudy,210,2013-01-01 00:35:00
7:55 PM,33.8,28.4,81,30.05,10.0,North,-9999.0,-,N/A,,Scattered Clouds,0,2013-01-01 00:55:00
8:15 PM,33.8,28.4,81,30.04,10.0,SSW,4.6,-,N/A,,Clear,210,2013-01-01 01:15:00
8:35 PM,35.6,28.4,75,30.03,10.0,SW,4.6,-,N/A,,Clear,230,2013-01-01 01:35:00
8:55 PM,35.6,28.4,75,30.03,10.0,WSW,5.8,-,N/A,,Mostly Cloudy,250,2013-01-01 01:55:00
9:15 PM,35.6,28.4,75,30.04,10.0,West,4.6,-,N/A,,Overcast,260,2013-01-01 02:15:00
9:35 PM,35.6,28.4,75,30.02,10.0,WSW,4.6,-,N/A,,Overcast,250,2013-01-01 02:35:00
10:15 PM,37.4,26.6,65,30.01,10.0,West,4.6,-,N/A,,Overcast,260,2013-01-01 03:15:00
10:35 PM,37.4,26.6,65,30.01,10.0,WSW,3.5,-,N/A,,Mostly Cloudy,250,2013-01-01 03:35:00
11:15 PM,37.4,26.6,65,30.01,10.0,WSW,4.6,-,N/A,,Scattered Clouds,250,2013-01-01 04:15:00
11:35 PM,35.6,26.6,70,30.01,10.0,West,5.8,-,N/A,,Scattered Clouds,270,2013-01-01 04:35:00
11:55 PM,33.8,28.4,81,30.00,10.0,West,3.5,-,N/A,,Clear,270,2013-01-01 04:55:00